Tracking 19854 objects as of 22-Sep-2019
HD Live streaming from Space Station
objects crossing your sky now

THORAD AGENA D DEB

Track THORAD AGENA D DEB now!
10-day predictions


NORAD ID: 42508
Int'l Code: 1970-025RN
Perigee: 847.3 km
Apogee: 1,028.0 km
Inclination: 99.8 °
Period: 103.6 minutes
Semi major axis: 7308 km
RCS: Unknown
Launch date: April 8, 1970
Source: United States (US)
Launch site: AIR FORCE WESTERN TEST RANGE (AFWTR)

Note: This is SATELLITE DEBRIS
aabbcc
Your satellite tracking list
Your tracking list is empty




NASA's NSSDC Master Catalog

Two Line Element Set (TLE):
1 42508U 70025RN  19264.98809457  .00000026  00000-0  57648-4 0  9997
2 42508  99.8060 323.7195 0123613  19.5615 341.0224 13.89462177834555
Source of the keplerian elements: AFSPC